When you browse on this site, cookies collect data to enhance your experience and personalize the content and advertising you see.
Visit our Privacy Policy to learn more. By continuing to use the site, you agree to this use of cookies and data.
  • In Italy
  • List of Countries
  • For 7 days
  • Water Temperature
  • Satellite Maps
  • Weather Map
  • Weather Widgets
  • user-avatar
    Login

    Hourly Weather Haradok

    Today, 23 July, Tuesday

    Time Temperature Precipitation Wind Pressure Humidity
    00:00 +16°C° 1.7 mm 2 mps 745 mmHg 98%
    01:00 +16°C° 1.7 mm 3 mps 745 mmHg 98%
    02:00 +16°C° 0 mm 2 mps 745 mmHg 99%
    03:00 +16°C° 1.6 mm 2 mps 745 mmHg 99%
    04:00 +16°C° 1.6 mm 3 mps 745 mmHg 98%
    05:00 +16°C° 1.6 mm 3 mps 744 mmHg 98%
    06:00 +16°C° 1.6 mm 3 mps 745 mmHg 97%
    07:00 +16°C° 1.6 mm 3 mps 745 mmHg 96%
    08:00 +15°C° 1.6 mm 4 mps 745 mmHg 95%
    09:00 +17°C° 0.8 mm 3 mps 745 mmHg 94%
    10:00 +17°C° 0.8 mm 3 mps 745 mmHg 94%
    11:00 +18°C° 0.8 mm 2 mps 745 mmHg 93%
    12:00 +19°C° 0.3 mm 2 mps 745 mmHg 88%
    13:00 +20°C° 0.3 mm 2 mps 745 mmHg 84%
    14:00 +21°C° 0.3 mm 2 mps 745 mmHg 79%
    15:00 +21°C° 0.3 mm 2 mps 745 mmHg 79%
    16:00 +21°C° 0.3 mm 2 mps 745 mmHg 79%
    17:00 +23°C° 0.3 mm 2 mps 745 mmHg 79%
    18:00 +20°C° 0.1 mm 3 mps 745 mmHg 82%
    19:00 +19°C° 0.1 mm 3 mps 745 mmHg 85%
    20:00 +18°C° 0.1 mm 3 mps 745 mmHg 88%
    21:00 +17°C° 0 mm 3 mps 745 mmHg 89%
    22:00 +16°C° 0 mm 3 mps 745 mmHg 91%
    23:00 +16°C° 0 mm 3 mps 745 mmHg 92%

    Tomorrow, 24 July, Wednesday

    Time Temperature Precipitation Wind Pressure Humidity
    00:00 +14°C° 0 mm 3 mps 746 mmHg 93%
    01:00 +14°C° 0 mm 3 mps 746 mmHg 93%
    02:00 +13°C° 0 mm 3 mps 746 mmHg 94%
    03:00 +14°C° 0 mm 2 mps 746 mmHg 94%
    04:00 +14°C° 0 mm 2 mps 746 mmHg 94%
    05:00 +14°C° 0 mm 2 mps 746 mmHg 93%
    06:00 +16°C° 0 mm 2 mps 746 mmHg 89%
    07:00 +17°C° 0 mm 2 mps 746 mmHg 85%
    08:00 +19°C° 0 mm 2 mps 747 mmHg 81%
    09:00 +20°C° 0.2 mm 3 mps 747 mmHg 75%
    10:00 +21°C° 0.2 mm 3 mps 747 mmHg 70%
    11:00 +24°C° 0.2 mm 3 mps 747 mmHg 65%
    12:00 +23°C° 0.1 mm 4 mps 747 mmHg 60%
    13:00 +25°C° 0.1 mm 4 mps 747 mmHg 56%
    14:00 +25°C° 0.1 mm 4 mps 747 mmHg 52%
    15:00 +25°C° 0.1 mm 4 mps 747 mmHg 56%
    16:00 +23°C° 0.1 mm 4 mps 747 mmHg 61%
    17:00 +23°C° 0.1 mm 4 mps 747 mmHg 66%
    18:00 +21°C° 0.1 mm 3 mps 747 mmHg 71%
    19:00 +19°C° 0.1 mm 3 mps 747 mmHg 77%
    20:00 +18°C° 0.1 mm 2 mps 747 mmHg 82%
    21:00 +17°C° 0 mm 2 mps 747 mmHg 84%
    22:00 +16°C° 0 mm 1 mps 748 mmHg 86%
    23:00 +15°C° 0 mm 1 mps 748 mmHg 87%

    Day after tomorrow, 25 July, Thursday

    Time Temperature Precipitation Wind Pressure Humidity
    00:00 +15°C° 0 mm 1 mps 748 mmHg 88%
    01:00 +15°C° 0 mm 2 mps 748 mmHg 88%
    02:00 +15°C° 0 mm 2 mps 747 mmHg 88%
    03:00 +16°C° 0.4 mm 2 mps 747 mmHg 90%
    04:00 +16°C° 0.4 mm 2 mps 748 mmHg 93%
    05:00 +16°C° 0.4 mm 1 mps 748 mmHg 96%
    06:00 +16°C° 0.4 mm 2 mps 747 mmHg 95%
    07:00 +16°C° 0.4 mm 2 mps 747 mmHg 95%
    08:00 +16°C° 0.4 mm 3 mps 747 mmHg 95%
    09:00 +17°C° 0.5 mm 3 mps 747 mmHg 92%
    10:00 +18°C° 0.5 mm 3 mps 747 mmHg 90%
    11:00 +18°C° 0.5 mm 3 mps 747 mmHg 87%
    12:00 +19°C° 0.4 mm 3 mps 747 mmHg 82%
    13:00 +20°C° 0.4 mm 3 mps 747 mmHg 77%
    14:00 +21°C° 0.4 mm 3 mps 747 mmHg 71%
    15:00 +21°C° 0.6 mm 3 mps 747 mmHg 74%
    16:00 +21°C° 0.6 mm 3 mps 747 mmHg 77%
    17:00 +21°C° 0.6 mm 3 mps 747 mmHg 79%
    18:00 +19°C° 0.2 mm 3 mps 747 mmHg 84%
    19:00 +18°C° 0.2 mm 3 mps 747 mmHg 88%
    20:00 +17°C° 0.2 mm 3 mps 747 mmHg 92%
    21:00 +16°C° 0 mm 3 mps 747 mmHg 94%
    22:00 +14°C° 0 mm 3 mps 747 mmHg 95%
    23:00 +14°C° 0 mm 3 mps 747 mmHg 97%

    26 July, Friday

    Time Temperature Precipitation Wind Pressure Humidity
    00:00 +13°C° 0 mm 3 mps 747 mmHg 97%
    01:00 +13°C° 0 mm 3 mps 747 mmHg 98%
    02:00 +13°C° 0 mm 3 mps 747 mmHg 98%
    03:00 +13°C° 0 mm 3 mps 747 mmHg 98%
    04:00 +13°C° 0 mm 3 mps 748 mmHg 98%
    05:00 +13°C° 0 mm 3 mps 748 mmHg 98%
    06:00 +14°C° 0 mm 3 mps 748 mmHg 97%
    07:00 +16°C° 0 mm 3 mps 748 mmHg 96%
    08:00 +17°C° 0 mm 4 mps 748 mmHg 95%
    09:00 +18°C° 0 mm 4 mps 748 mmHg 92%
    10:00 +18°C° 0 mm 3 mps 748 mmHg 90%
    11:00 +19°C° 0 mm 3 mps 749 mmHg 87%
    12:00 +20°C° 0.3 mm 3 mps 749 mmHg 85%
    13:00 +21°C° 0.3 mm 3 mps 749 mmHg 83%
    14:00 +22°C° 0.3 mm 4 mps 748 mmHg 80%
    15:00 +22°C° 0.6 mm 4 mps 748 mmHg 82%
    16:00 +24°C° 0.6 mm 3 mps 748 mmHg 83%
    17:00 +24°C° 0.6 mm 3 mps 748 mmHg 85%
    18:00 +22°C° 0.2 mm 3 mps 748 mmHg 87%
    19:00 +21°C° 0.2 mm 3 mps 748 mmHg 90%
    20:00 +20°C° 0.2 mm 3 mps 748 mmHg 92%
    21:00 +19°C° 0 mm 3 mps 748 mmHg 93%
    22:00 +19°C° 0 mm 3 mps 748 mmHg 94%
    23:00 +18°C° 0 mm 3 mps 748 mmHg 95%

    27 July, Saturday

    Time Temperature Precipitation Wind Pressure Humidity
    00:00 +18°C° 0 mm 3 mps 747 mmHg 95%
    01:00 +18°C° 0 mm 3 mps 747 mmHg 96%
    02:00 +18°C° 0 mm 3 mps 747 mmHg 97%
    03:00 +18°C° 0 mm 3 mps 747 mmHg 97%
    04:00 +18°C° 0 mm 4 mps 747 mmHg 97%
    05:00 +18°C° 0 mm 4 mps 747 mmHg 97%
    06:00 +19°C° 0 mm 4 mps 747 mmHg 93%
    07:00 +20°C° 0 mm 4 mps 747 mmHg 89%
    08:00 +22°C° 0 mm 5 mps 747 mmHg 85%
    09:00 +23°C° 0 mm 5 mps 747 mmHg 78%
    10:00 +25°C° 0 mm 5 mps 747 mmHg 72%
    11:00 +27°C° 0 mm 5 mps 747 mmHg 65%
    12:00 +27°C° 0.1 mm 5 mps 747 mmHg 63%
    13:00 +28°C° 0.1 mm 5 mps 746 mmHg 61%
    14:00 +29°C° 0.1 mm 5 mps 746 mmHg 59%
    15:00 +28°C° 0.2 mm 4 mps 746 mmHg 62%
    16:00 +28°C° 0.2 mm 4 mps 746 mmHg 65%
    17:00 +28°C° 0.2 mm 4 mps 746 mmHg 68%
    18:00 +26°C° 0 mm 4 mps 746 mmHg 72%
    19:00 +23°C° 0 mm 4 mps 746 mmHg 76%
    20:00 +22°C° 0 mm 4 mps 746 mmHg 79%
    21:00 +21°C° 0 mm 3 mps 746 mmHg 82%
    22:00 +20°C° 0 mm 3 mps 746 mmHg 86%
    23:00 +19°C° 0 mm 3 mps 746 mmHg 89%

    28 July, Sunday

    Time Temperature Precipitation Wind Pressure Humidity
    00:00 +19°C° 0 mm 3 mps 745 mmHg 90%
    01:00 +18°C° 0 mm 2 mps 745 mmHg 92%
    02:00 +18°C° 0 mm 2 mps 745 mmHg 94%
    03:00 +18°C° 0 mm 2 mps 745 mmHg 94%
    04:00 +18°C° 0 mm 3 mps 745 mmHg 94%
    05:00 +18°C° 0 mm 3 mps 745 mmHg 94%
    06:00 +19°C° 0 mm 3 mps 745 mmHg 90%
    07:00 +21°C° 0 mm 4 mps 745 mmHg 86%
    08:00 +22°C° 0 mm 4 mps 745 mmHg 81%
    09:00 +22°C° 0 mm 5 mps 745 mmHg 77%
    10:00 +23°C° 0 mm 5 mps 745 mmHg 73%
    11:00 +23°C° 0 mm 5 mps 745 mmHg 69%
    12:00 +23°C° 0 mm 5 mps 745 mmHg 65%
    13:00 +23°C° 0 mm 5 mps 745 mmHg 61%
    14:00 +25°C° 0 mm 5 mps 745 mmHg 57%
    15:00 +23°C° 0 mm 5 mps 745 mmHg 60%
    16:00 +22°C° 0 mm 5 mps 745 mmHg 63%
    17:00 +21°C° 0 mm 4 mps 745 mmHg 66%
    18:00 +20°C° 0 mm 4 mps 745 mmHg 69%
    19:00 +18°C° 0 mm 4 mps 745 mmHg 72%
    20:00 +16°C° 0 mm 3 mps 745 mmHg 75%
    21:00 +14°C° 0 mm 3 mps 746 mmHg 74%
    22:00 +14°C° 0 mm 4 mps 746 mmHg 73%
    23:00 +13°C° 0 mm 4 mps 746 mmHg 72%
    Show more